Weather History for KSZL - December, 2014

Change the Weather History Date:

Thursday, December 18, 2014

  Actual Average Record
Temperature  
Mean Temperature 31 °F -  
Max Temperature 33 °F 38 °F 68 °F (2002)
Min Temperature 29 °F 21 °F 6 °F (2000)
Degree Days  
Heating Degree Days 34    
Moisture  
Dew Point 30 °F    
Average Humidity 93    
Maximum Humidity 100    
Minimum Humidity 80    
Precipitation  
Precipitation 0.07 in - - ()
Snow  
Snow 0.00 in - - ()
Snow Depth 1.00 in    
Sea Level Pressure  
Sea Level Pressure 30.25 in    
Wind  
Wind Speed 4 mph (ENE)    
Max Wind Speed 7 mph    
Max Gust Speed -    
Visibility 4 miles    
Events Snow    
Averages and records for this station are not official NWS values.
T = Trace of Precipitation, MM = Missing Value Source: NWS Daily Summary

Daily Weather History Graph

Daily Weather History Graph

Search for Another Location

Airport or City:

Trip Planner

Search our weather history database for the weather conditions in past years. The results will help you decide how hot, cold, wet, or windy it might be!

Date:

Astronomy

Dec. 18, 2014 Rise Set
Actual Time 7:27 AM CST 4:54 PM CST
Civil Twilight 6:57 AM CST 5:24 PM CST
Nautical Twilight 6:23 AM CST 5:58 PM CST
Astronomical Twilight 5:51 AM CST 6:30 PM CST
Moon 3:42 AM CST (12/18) 2:33 PM CST (12/18)
Length of Visible Light 10h 27m
Length of Day
9h 27m
Waning Crescent, 13% of the Moon is Illuminated
Dec 18
Waning Crescent
Dec 21
New
Dec 28
First Quarter
Jan 4
Full
Jan 13
Last Quarter

Hourly Weather History & Observations

Time (CST) Temp. Windchill Dew Point Humidity Pressure Visibility Wind Dir Wind Speed Gust Speed Precip Events Conditions
12:29 AM 32.0 °F - 26.6 °F 80% 30.25 in 3.0 mi NE 2.3 mph - N/A Snow Light Snow
12:58 AM 29.3 °F 25.6 °F 27.5 °F 93% 30.29 in 2.5 mi North 3.5 mph - 0.01 in Snow Light Snow
1:58 AM 29.3 °F 23.2 °F 27.5 °F 93% 30.27 in 2.5 mi ENE 5.8 mph - 0.00 in Snow Light Snow
2:58 AM 29.3 °F 23.2 °F 27.5 °F 93% 30.27 in 4.0 mi ENE 5.8 mph - 0.00 in Snow Light Snow
3:58 AM 29.3 °F - 27.9 °F 94% 30.27 in 3.0 mi ENE 2.3 mph - 0.01 in Snow Light Snow
4:58 AM 29.3 °F 22.3 °F 27.9 °F 94% 30.25 in 4.0 mi ENE 6.9 mph - 0.02 in Snow Light Snow
5:58 AM 29.8 °F 24.9 °F 28.0 °F 93% 30.25 in 4.0 mi East 4.6 mph - 0.00 in Snow Light Snow
6:58 AM 30.0 °F 24.1 °F 28.6 °F 94% 30.25 in 4.0 mi ENE 5.8 mph - 0.00 in Snow Light Snow
7:58 AM 30.2 °F 25.4 °F 28.4 °F 93% 30.26 in 1.5 mi East 4.6 mph - 0.00 in Snow Light Snow
8:12 AM 30.2 °F 24.3 °F 28.4 °F 93% 30.22 in 1.5 mi East 5.8 mph - N/A Snow Light Snow
8:58 AM 30.7 °F 26.0 °F 28.9 °F 93% 30.27 in 1.5 mi East 4.6 mph - 0.01 in Snow Light Snow
9:58 AM 31.3 °F 26.6 °F 29.3 °F 92% 30.27 in 2.0 mi East 4.6 mph - 0.00 in Snow Light Snow
10:46 AM 32.0 °F 26.4 °F 30.2 °F 93% 30.24 in 1.0 mi East 5.8 mph - N/A Snow Snow
10:57 AM 32.0 °F 28.7 °F 29.7 °F 91% 30.27 in 1.2 mi East 3.5 mph - 0.01 in Snow Light Snow
11:56 AM 32.2 °F 27.7 °F 29.8 °F 91% 30.25 in 3.0 mi East 4.6 mph - 0.01 in Snow Light Snow
12:04 PM 32.0 °F 28.7 °F 30.2 °F 93% 30.21 in 5.0 mi ENE 3.5 mph - N/A   Overcast
12:58 PM 32.7 °F 28.3 °F 29.8 °F 89% 30.24 in 6.0 mi ENE 4.6 mph - 0.00 in   Overcast
1:55 PM 33.3 °F 28.9 °F 30.2 °F 89% 30.22 in 6.0 mi ENE 4.6 mph - N/A   Overcast
2:55 PM 33.4 °F 29.1 °F 30.4 °F 89% 30.21 in 6.0 mi ENE 4.6 mph - N/A   Overcast
3:58 PM 33.4 °F 29.1 °F 30.7 °F 90% 30.23 in 6.0 mi NE 4.6 mph - N/A   Overcast
4:08 PM 32.0 °F 27.5 °F 32.0 °F 100% 30.19 in 8.0 mi ENE 4.6 mph - N/A   Overcast
4:58 PM 33.1 °F 28.7 °F 30.7 °F 91% 30.25 in 7.0 mi NE 4.6 mph - N/A   Overcast
5:58 PM 32.5 °F 27.1 °F 30.4 °F 92% 30.25 in 8.0 mi NE 5.8 mph - N/A   Overcast
6:53 PM 32.0 °F 26.4 °F 32.0 °F 100% 30.23 in 7.0 mi NNE 5.8 mph - N/A   Overcast
6:58 PM 32.4 °F 26.9 °F 30.6 °F 93% 30.27 in 6.0 mi NNE 5.8 mph - N/A   Overcast
7:58 PM 32.4 °F 27.9 °F 30.9 °F 94% 30.27 in 5.0 mi ENE 4.6 mph - N/A   Overcast
8:58 PM 32.4 °F 27.9 °F 31.1 °F 95% 30.28 in 4.0 mi ENE 4.6 mph - N/A   Overcast
9:58 PM 32.5 °F 28.1 °F 31.5 °F 96% 30.29 in 3.0 mi NE 4.6 mph - N/A   Overcast
10:58 PM 32.5 °F 29.3 °F 31.5 °F 96% 30.30 in 3.0 mi NE 3.5 mph - N/A   Overcast
11:03 PM 32.0 °F - 32.0 °F 100% 30.26 in 2.5 mi ENE 2.3 mph - N/A   Overcast
11:08 PM 32.0 °F 28.7 °F 32.0 °F 100% 30.26 in 2.5 mi ENE 3.5 mph - N/A   Overcast
11:58 PM 32.7 °F - 32.0 °F 97% 30.30 in 2.0 mi ENE 2.3 mph - N/A   Overcast